Regional Weather Roundup
Issued by NWS Northern Indiana

Home | Current Version | Previous Version | Text Only | Print | Product List | Glossary Off
Versions: 1 2 3 4 5 6 7 8 9 10 11 12 13 14 15 16 17 18 19 20 21 22 23 24 25 26 27 28 29 30 31 32 33 34 35 36 37 38 39 40 41 42 43 44 45 46 47 48 49 50

379
ASUS43 KIWX 061510
RWRIWX

KIWX WEATHER ROUNDUP
NATIONAL WEATHER SERVICE NORTHERN INDIANA
1000 AM EST SAT FEB 06 2016

NOTE: "FAIR" INDICATES FEW OR NO CLOUDS BELOW 12,000 FEET WITH NO
SIGNIFICANT WEATHER AND/OR OBSTRUCTIONS TO VISIBILITY.

* THESE STATIONS ARE NOT UNDER NWS QUALITY CONTROL. THEY ALSO MAY NOT
  REPORT WEATHER SUCH AS PRECIPITATION OR FOG.

INZ001>027-061600-
NORTHERN INDIANA

CITY           SKY/WX    TMP DP  RH WIND       PRES   REMARKS
GARY*          SUNNY     30  23  74 S5        30.30F WCI  25
VALPARAISO     SUNNY     28  23  81 SW10      30.30S WCI  19
MICHIGAN CITY* SUNNY     30  27  86 SW8       30.30S WCI  23
LAPORTE*       SUNNY     29  29  98 SW12      30.30R WCI  20
SOUTH BEND     SUNNY     26  22  84 SW10      30.29F WCI  16
ELKHART*       SUNNY     81  75  83 MISG      30.30S
GOSHEN         SUNNY     27  23  85 SW10      30.29S FOG     WCI  17
MONTICELLO*    SUNNY     27  21  77 SW7       30.32S WCI  20
LOGANSPORT*    SUNNY     28  23  80 SW7       30.33S WCI  21
ROCHESTER*     SUNNY     30  23  74 SW8       30.31F WCI  23
WARSAW*        SUNNY     28  25  86 SW5       30.29F WCI  23
ANGOLA*        SUNNY     27  25  93 SW7       30.26F WCI  19
FORT WAYNE     MOSUNNY   27  24  89 SW8       30.32F FOG     WCI  19
HUNTINGTON*    SUNNY     27  21  79 SW6       30.32F WCI  21
PERU/GRISSOM   SUNNY     28  25  88 SW9       30.30F WCI  19
MARION*        SUNNY     27  19  72 SW7       30.33F WCI  19

$$
INZ028>050-061600-
CENTRAL INDIANA

CITY           SKY/WX    TMP DP  RH WIND       PRES   REMARKS
LAFAYETTE      PTSUNNY   27  23  85 SW6       30.34S WCI  20
KOKOMO*        SUNNY     28  23  80 S10       30.32F WCI  19
MUNCIE*        SUNNY     29  23  78 SW8       30.33R WCI  21
INDIANAPOLIS   CLOUDY    28  24  85 S3        30.32F

$$
MIZ043>046-050>051-056>058-064>065-071>073-077>080-061600-
SOUTHWEST LOWER MICHIGAN

CITY           SKY/WX    TMP DP  RH WIND       PRES   REMARKS
BATTLE CREEK   SUNNY     27  22  81 SW10      30.25S WCI  17
BENTON HARBOR  SUNNY     29  24  82 SW12      30.28R HAZE    WCI  19
COLDWATER*     SUNNY     28  25  89 SW7       30.27S FOG     WCI  20
HILLSDALE*     MOSUNNY   27  23  84 SW7       30.25F FOG     WCI  19
HOLLAND        PTSUNNY   33  24  69 SW16      30.24F WCI  23
GRAND RAPIDS   MOSUNNY   30  25  81 SW15      30.23S HAZE    WCI  19
KALAMAZOO      SUNNY     27  22  81 SW8       30.26S WCI  19
STURGIS*       SUNNY     26  24  91 SW9       30.26S FOG     WCI  17
THREE RIVERS*  FAIR      27  26  94 SW7       30.27F FOG     WCI  20

$$
OHZ001>008-015>018-024>025-061600-
NORTHWEST OHIO

CITY           SKY/WX    TMP DP  RH WIND       PRES   REMARKS
DEFIANCE       MOSUNNY   29  24  82 SW6       30.32S HAZE    WCI  23
FINDLAY        MOSUNNY   30  26  85 W8        30.32S FOG     WCI  22
TOLEDO EXPRESS MOSUNNY   29  23  78 SW8       30.30F WCI  21
TOLEDO METCALF MOSUNNY   29  24  82 SW10      30.32F HAZE    WCI  20
LIMA           CLOUDY    27  25  92 W7        30.33R FOG     WCI  19

$$
AND FOR LAKE MICHIGAN COASTAL AND OPEN LAKE BUOY OBSERVATIONS

STATION/POSITION TEMP    WIND        PRES    VSBY  WAVE
                 AIR SEA DIR/SP/G                  HT/PER
                 (F)     (DEG/KT/KT) (MB)    (MI)  (FT/S)
CALUMET HARBOR    27     200/  7/  9 1025.0R
MICHIGAN CITY     26     160/ 12/ 15   N/A
BURNS HARBOR      27     200/ 11/ 13 1026.1S
SAINT JOSEPH      29     190/ 17/ 19 1025.7S

$$
&&




USA.gov is the U.S. government's official web portal to all federal, state and local government web resources and services.